Flag for U.S.A. Weather past 2 weeks in Antioch, California, U.S.A.

Now
54 °F

Fog.


Feels Like: 54 °F
Forecast: 48 / 57 °F
Wind: 3 mph from Northeast

Location: Buchanan Field

Current Time: Dec 18, 2014 at 10:49:07 AM

Latest Report: Dec 18, 2014 at 9:53 AM


Visibility: 3 mi

Pressure: 30.14 "Hg

Humidity: 86%

Dew point: 50 °F

Location of AntiochLocation

Historic Weather in Antioch — Graph

°F

Antioch temperature yesterday

Maximum temperature yesterday: 60 °F (at 12:53 PM)
Minimum temperature yesterday: 50 °F (at 5:53 AM)
Average temperature yesterday: 54 °F

Past Weeks' High & Low Weather Summary

 TemperatureHumidityPressure
High68 °F (Dec 4, 12:53 PM)97% (Dec 4, 1:53 AM)30.23 "Hg (Dec 4, 1:53 AM)
Low45 °F (Dec 13, 2:00 AM)54% (Dec 16, 1:53 PM)29.46 "Hg (Dec 11, 7:53 AM)
Average56 °F85%29.97 "Hg
* Reported Dec 3 9:53 AM — Dec 18 9:53 AM, Antioch, Weather by CustomWeather, © 2014

Note: Actual official high and low records may vary slightly from our data, if they occured in-between our weather recording intervals... More about our weather records

Advertising

Antioch weather history for previous 24 hours

 ConditionsComfort  
Time TempWeatherWind HumidityBarometerVisibility
9:53 AM
Dec 18
54 °FFog.3 mph86%30.14 "Hg3 mi
9:00 AM53 °FLight rain. Fog.3 mph89%30.16 "Hg2 mi
8:53 AM53 °FLight rain. Fog.5 mph89%30.12 "Hg2 mi
7:53 AM52 °FFog.No wind93%30.10 "Hg3 mi
6:53 AM52 °FMostly cloudy.No wind89%30.08 "Hg10 mi
5:53 AM52 °FOvercast.No wind89%30.07 "Hg10 mi
4:53 AM51 °FOvercast.3 mph89%30.05 "Hg10 mi
3:53 AM52 °FMostly cloudy.No wind89%30.05 "Hg10 mi
2:53 AM52 °FOvercast.No wind89%30.04 "Hg10 mi
1:53 AM52 °FMostly cloudy.No wind89%30.04 "Hg10 mi
12:53 AM52 °FOvercast.3 mph86%30.04 "Hg10 mi
11:53 PM
Dec 17
52 °FOvercast.No wind86%30.04 "Hg10 mi
10:53 PM52 °FOvercast.3 mph83%30.04 "Hg10 mi
9:53 PM52 °FMostly cloudy.3 mph89%30.03 "Hg10 mi
8:53 PM52 °FLight rain. Overcast.5 mph86%30.03 "Hg8 mi
7:53 PM52 °FLight rain. Overcast.5 mph86%30.03 "Hg7 mi
6:53 PM53 °FRain. Fog.5 mph86%30.02 "Hg6 mi
5:53 PM54 °FRain. Mostly cloudy.7 mph80%30.01 "Hg6 mi
4:53 PM55 °FLight rain. Overcast.5 mph83%30.01 "Hg10 mi
3:53 PM58 °FLight rain. Broken clouds.6 mph70%29.99 "Hg10 mi
2:53 PM59 °FPartly sunny.12 mph62%29.97 "Hg10 mi
1:53 PM59 °FBroken clouds.9 mph60%29.98 "Hg10 mi
12:53 PM60 °FPartly sunny.8 mph62%30.01 "Hg10 mi
11:53 AM59 °FScattered clouds.9 mph69%30.01 "Hg10 mi
10:53 AM56 °FPartly sunny.7 mph77%30.03 "Hg10 mi
Weather by CustomWeather, © 2014

See weather overviewHow to use our weather pages